Regional Weather Roundup
Issued by NWS

Home | Current Version | Previous Version | Text Only | Print | Product List | Glossary On
Versions: 1 2 3 4 5 6 7 8 9 10 11 12 13 14 15 16 17 18 19 20 21 22 23 24 25 26 27
000
ASUS42 KKEY 252110
RWRKEY

FLORIDA REGIONAL WEATHER ROUNDUP FOR THE FLORIDA KEYS
NATIONAL WEATHER SERVICE KEY WEST FLORIDA
500 PM EDT SAT MAR 25 2017

...SOUTH FLORIDA AND THE KEYS...

CITY           SKY/WX    TMP DP  RH WIND       PRES   REMARKS
FORT MYERS     MOSUNNY   86  54  33 MISG      30.08F
SW REGIONAL AP MOSUNNY   82  54  37 E7        30.09F
NAPLES         PTSUNNY   78  65  63 W10       30.10F
MIAMI          CLOUDY    79  63  57 E17       30.12F
WEST KENDALL   CLOUDY    79  64  60 E18       30.12F
HOMESTEAD      PTSUNNY   77  66  69 E13       30.11F
MARATHON       MOSUNNY   81  64  56 E16       30.09F
BOCA CHICA NAS PTSUNNY   79  64  60 E17G24    30.09F
KEY WEST INTL  MOSUNNY   79  65  62 E14G23    30.09F

...INTERNATIONAL WEATHER...

CITY           SKY/WX    TMP DP  RH WIND       PRES   REMARKS
NASSAU BAHAMAS MOSUNNY   77  64  65 NE16      30.10F
CANCUN MEXICO  PTSUNNY   81  66  61 SE9       30.01F
COZUMEL MEXICO PTSUNNY   84  64  51 E9        29.98F

ADJACENT COASTAL WATERS...

STATION/POSITION TIME  SKY/WX   TEMP    WIND        PRES    WAVE
                                AIR SEA DIR/SP/G            HT/PER
                 (UTC)          (F)     (DEG/KT/KT) (MB)    (FT/S)
PULASKI SHOAL LI 2100            74      80/ 17/ 18 1018.6F
SAND KEY         2050            76     110/ 16/ 19 1019.1F
LONG KEY         2000            75 75  100/ 11/ 12 1020.1F
MOLASSES REEF    2100            74 77   90/ 17/ 18 1019.5
FOWEY ROCKS      2100            74 76   80/ 18/ 20 1020.2F
Buoy 42097       2100                                 N/A     4/ 6

$$




USA.gov is the U.S. government's official web portal to all federal, state and local government web resources and services.